Weather History for Lincolnton, NC

Change the Weather History Date:

Wednesday, November 6, 2013

  Actual Average (KCLT) Record (KCLT)
Temperature  
Mean Temperature 58 °F 54 °F  
Max Temperature 69 °F 66 °F 82 °F (2003)
Min Temperature 46 °F 42 °F 26 °F (1976)
Degree Days  
Heating Degree Days 8 11  
Month to date heating degree days 64  
Since 1 July heating degree days 270  
Cooling Degree Days 0 0  
Month to date cooling degree days 0  
Year to date cooling degree days 1513  
Growing Degree Days 8 (Base 50)    
Moisture  
Dew Point 48 °F    
Average Humidity 77    
Maximum Humidity 100    
Minimum Humidity 46    
Precipitation  
Precipitation 0.00 in 0.10 in 1.34 in (1977)
Month to date precipitation 0.60  
Year to date precipitation 35.84  
Snow  
Snow 0.00 in 0.00 in 0.00 in ()
Month to date snowfall 0.0  
Since 1 July snowfall 0.0  
Since 1 September snowfall 0.0  
Snow Depth -    
Sea Level Pressure  
Sea Level Pressure 30.29 in    
Wind  
Wind Speed 2 mph (North)    
Max Wind Speed 7 mph    
Max Gust Speed -    
Visibility 10 miles    
Events      
T = Trace of Precipitation, MM = Missing Value Source: NWS Daily Summary

Daily Weather History Graph

Daily Weather History Graph

Search for Another Location

Airport:

Trip Planner

Search our weather history database for the weather conditions in past years. The results will help you decide how hot, cold, wet, or windy it might be!

Date:

Astronomy

Nov. 06, 2013 Rise Set
Actual Time 6:51 AM EST 5:24 PM EST
Civil Twilight 6:24 AM EST 5:51 PM EST
Nautical Twilight 5:54 AM EST 6:21 PM EST
Astronomical Twilight 5:24 AM EST 6:51 PM EST
Moon 10:02 AM EST (11/6) 8:30 PM EST (11/6)
Length of Visible Light 11h 26m
Length of Day
10h 33m
Waxing Crescent, 13% of the Moon is Illuminated
Nov 6
Waxing Crescent
Nov 10
First Quarter
Nov 17
Full
Nov 25
Last Quarter
Dec 2
New

Hourly Weather History & Observations

Time (EST) Temp. Dew Point Humidity Pressure Visibility Wind Dir Wind Speed Gust Speed Precip Events Conditions
12:15 AM 50.0 °F 48.2 °F 94% 30.43 in 10.0 mi NNW 3.5 mph - N/A   Overcast
12:37 AM 50.0 °F 48.2 °F 94% 30.43 in 10.0 mi Calm Calm - N/A   Overcast
12:55 AM 50.0 °F 48.2 °F 94% 30.42 in 10.0 mi NW 3.5 mph - N/A   Overcast
1:15 AM 50.0 °F 48.2 °F 94% 30.42 in 10.0 mi Calm Calm - N/A   Overcast
1:35 AM 50.0 °F 48.2 °F 94% 30.41 in 10.0 mi Calm Calm - N/A   Overcast
1:55 AM 50.0 °F 48.2 °F 94% 30.41 in 10.0 mi NW 3.5 mph - N/A   Overcast
2:16 AM 50.0 °F 48.2 °F 94% 30.40 in 10.0 mi NNW 3.5 mph - N/A   Overcast
2:35 AM 50.0 °F 48.2 °F 94% 30.40 in 10.0 mi Calm Calm - N/A   Overcast
2:55 AM 50.0 °F 48.2 °F 94% 30.40 in 10.0 mi Calm Calm - N/A   Overcast
3:15 AM 50.0 °F 48.2 °F 94% 30.39 in 10.0 mi NW 3.5 mph - N/A   Overcast
3:35 AM 50.0 °F 48.2 °F 94% 30.38 in 10.0 mi NNW 3.5 mph - N/A   Overcast
3:55 AM 50.0 °F 48.2 °F 94% 30.38 in 10.0 mi NNW 3.5 mph - N/A   Overcast
4:15 AM 50.0 °F 46.4 °F 87% 30.38 in 10.0 mi NNW 3.5 mph - N/A   Overcast
4:35 AM 50.0 °F 46.4 °F 87% 30.38 in 10.0 mi North 3.5 mph - N/A   Overcast
4:55 AM 50.0 °F 46.4 °F 87% 30.37 in 10.0 mi North 4.6 mph - N/A   Overcast
5:15 AM 50.0 °F 46.4 °F 87% 30.37 in 10.0 mi NNW 3.5 mph - N/A   Overcast
5:35 AM 50.0 °F 46.4 °F 87% 30.37 in 10.0 mi NNW 3.5 mph - N/A   Overcast
5:57 AM 50.0 °F 46.4 °F 87% 30.37 in 10.0 mi NNW 3.5 mph - N/A   Overcast
6:15 AM 50.0 °F 46.4 °F 87% 30.37 in 10.0 mi North 4.6 mph - N/A   Overcast
6:35 AM 50.0 °F 46.4 °F 87% 30.37 in 10.0 mi NNW 3.5 mph - N/A   Overcast
6:57 AM 50.0 °F 46.4 °F 87% 30.37 in 10.0 mi NNW 3.5 mph - N/A   Overcast
7:15 AM 50.0 °F 46.4 °F 87% 30.37 in 10.0 mi North 5.8 mph - N/A   Overcast
7:35 AM 50.0 °F 46.4 °F 87% 30.37 in 10.0 mi NNW 3.5 mph - N/A   Overcast
7:55 AM 51.8 °F 46.4 °F 82% 30.38 in 10.0 mi North 4.6 mph - N/A   Overcast
8:15 AM 51.8 °F 46.4 °F 82% 30.38 in 10.0 mi NNE 5.8 mph - N/A   Overcast
8:35 AM 53.6 °F 46.4 °F 77% 30.38 in 10.0 mi NE 6.9 mph - N/A   Overcast
8:55 AM 55.4 °F 46.4 °F 72% 30.38 in 10.0 mi NNE 4.6 mph - N/A   Overcast
9:15 AM 57.2 °F 46.4 °F 67% 30.37 in 10.0 mi NE 5.8 mph - N/A   Overcast
9:35 AM 57.2 °F 46.4 °F 67% 30.37 in 10.0 mi North 4.6 mph - N/A   Scattered Clouds
9:55 AM 60.8 °F 46.4 °F 59% 30.37 in 10.0 mi SSW 3.5 mph - N/A   Mostly Cloudy
10:15 AM 60.8 °F 46.4 °F 59% 30.37 in 10.0 mi North 4.6 mph - N/A   Mostly Cloudy
10:35 AM 60.8 °F 46.4 °F 59% 30.36 in 10.0 mi North 3.5 mph - N/A   Scattered Clouds
10:55 AM 62.6 °F 46.4 °F 55% 30.36 in 10.0 mi Calm Calm - N/A   Clear
11:15 AM 64.4 °F 46.4 °F 52% 30.35 in 10.0 mi Calm Calm - N/A   Clear
11:35 AM 64.4 °F 46.4 °F 52% 30.34 in 10.0 mi Calm Calm - N/A   Clear
12:16 PM 64.4 °F 46.4 °F 52% 30.32 in 10.0 mi Calm Calm - N/A   Clear
12:35 PM 66.2 °F 46.4 °F 49% 30.30 in 10.0 mi ESE 4.6 mph - N/A   Scattered Clouds
12:55 PM 66.2 °F 46.4 °F 49% 30.30 in 10.0 mi Calm Calm - N/A   Mostly Cloudy
1:15 PM 66.2 °F 46.4 °F 49% 30.28 in 10.0 mi Calm Calm - N/A   Mostly Cloudy
1:35 PM 68.0 °F 48.2 °F 49% 30.27 in 10.0 mi Calm Calm - N/A   Scattered Clouds
1:55 PM 69.8 °F 48.2 °F 46% 30.25 in 7.0 mi Calm Calm - N/A   Scattered Clouds
2:15 PM 69.8 °F 48.2 °F 46% 30.25 in 10.0 mi Calm Calm - N/A   Clear
2:35 PM 69.8 °F 48.2 °F 46% 30.24 in 10.0 mi North 4.6 mph - N/A   Clear
2:55 PM 69.8 °F 48.2 °F 46% 30.23 in 10.0 mi Calm Calm - N/A   Scattered Clouds
3:15 PM 69.8 °F 48.2 °F 46% 30.23 in 10.0 mi Calm Calm - N/A   Clear
3:35 PM 68.0 °F 48.2 °F 49% 30.22 in 10.0 mi Calm Calm - N/A   Mostly Cloudy
3:56 PM 69.8 °F 48.2 °F 46% 30.22 in 10.0 mi ENE 4.6 mph - N/A   Mostly Cloudy
4:15 PM 69.8 °F 48.2 °F 46% 30.22 in 10.0 mi Calm Calm - N/A   Scattered Clouds
4:35 PM 68.0 °F 48.2 °F 49% 30.21 in 10.0 mi Calm Calm - N/A   Clear
4:55 PM 66.2 °F 50.0 °F 56% 30.21 in 10.0 mi Calm Calm - N/A   Clear
5:15 PM 64.4 °F 50.0 °F 59% 30.21 in 10.0 mi Calm Calm - N/A   Clear
5:37 PM 60.8 °F 50.0 °F 68% 30.20 in 10.0 mi Calm Calm - N/A   Clear
5:55 PM 59.0 °F 50.0 °F 72% 30.21 in 10.0 mi Calm Calm - N/A   Scattered Clouds
6:15 PM 57.2 °F 51.8 °F 82% 30.20 in 10.0 mi Calm Calm - N/A   Mostly Cloudy
6:35 PM 55.4 °F 51.8 °F 88% 30.20 in 10.0 mi Calm Calm - N/A   Scattered Clouds
6:55 PM 53.6 °F 50.0 °F 88% 30.20 in 10.0 mi Calm Calm - N/A   Clear
7:15 PM 51.8 °F 48.2 °F 88% 30.19 in 10.0 mi Calm Calm - N/A   Clear
7:35 PM 53.6 °F 51.8 °F 94% 30.19 in 10.0 mi Calm Calm - N/A   Clear
7:55 PM 51.8 °F 48.2 °F 88% 30.18 in 10.0 mi Calm Calm - N/A   Clear
8:15 PM 51.8 °F 50.0 °F 94% 30.18 in 10.0 mi Calm Calm - N/A   Clear
8:35 PM 50.0 °F 48.2 °F 94% 30.18 in 10.0 mi Calm Calm - N/A   Clear
8:55 PM 48.2 °F 48.2 °F 100% 30.18 in 10.0 mi Calm Calm - N/A   Clear
9:15 PM 50.0 °F 48.2 °F 94% 30.18 in 7.0 mi Calm Calm - N/A   Clear
9:37 PM 48.2 °F 48.2 °F 100% 30.17 in 10.0 mi Calm Calm - N/A   Clear
9:55 PM 48.2 °F 46.4 °F 93% 30.17 in 10.0 mi Calm Calm - N/A   Clear
10:15 PM 46.4 °F 46.4 °F 100% 30.16 in 7.0 mi Calm Calm - N/A   Clear
10:36 PM 46.4 °F 44.6 °F 93% 30.15 in 10.0 mi Calm Calm - N/A   Clear
10:55 PM 46.4 °F 44.6 °F 93% 30.14 in 10.0 mi Calm Calm - N/A   Clear
11:15 PM 46.4 °F 46.4 °F 100% 30.14 in 10.0 mi Calm Calm - N/A   Clear
11:35 PM 46.4 °F 44.6 °F 93% 30.14 in 10.0 mi Calm Calm - N/A   Clear
11:55 PM 46.4 °F 44.6 °F 93% 30.13 in 10.0 mi Calm Calm - N/A   Clear